sat.trackr.live / text

‹ back to catalog

STARLINK-5450

NORAD 54778 · 2022-175W

PAYLOAD ACTIVE UNKNOWN

§ Identity

Operator
Country
US
Launch date
2022-12-17
Launch site
AFETR
Launch vehicle
Mass (kg)
RCS (m²)

Purposes: comms

External: N2YO · Heavens-Above · Gunter

§ Orbital elements

Epoch: 2026-09-20T21:56:40.017984Z

Period
93.85 min
Inclination
53.1565°
Eccentricity
0.0001324
Mean motion
15.34385266 rev/d
Perigee alt
461.8 km
Apogee alt
463.7 km
Semi-major
6,840.9 km
B*
2.6563e-5
RAAN
217.9021°
Arg perigee
95.9305°
Mean anomaly
264.1849°
Rev number
20,980

§ Raw data

STARLINK-54501 54778U 22175W   26263.91435206  .00000521  00000+0  26563-4 0  99902 54778  53.1565 217.9021 0001324  95.9305 264.1849 15.34385266209807

JSON: /api/v1/satellites/54778 · /tle

For live sub-satellite position, see the globe view (requires WebGL).

§ Visibility from observer

Set your observer location to see the next 7 days of passes ≥ 10°. The values pass through the URL so the page stays shareable.

No JS? Fill the form by hand. The geolocation button needs JavaScript.